Back to Top

Language: 

My Weather Underground Personal Weather Station Historical Data with Graphs...

Delerius Weather Station Historical Data
Daily Summary for May 5, 2017 Units:  Metric    English   Both
« Previous Day
Next Day »
Daily Weekly Monthly Yearly Custom
  High: Low: Average:
Temperature: 16.4 °C 5.5 °C 10.2 °C
Dew Point: 7 °C 1.1 °C 4.7 °C
Humidity: 95 % 41 % 72 %
Wind Speed: 19.3 km/h 0 km/h 10.1 km/h
Wind Gust: 46.7 km/h - -
Wind:- - ENE
Pressure: 1028.7 hPa 1019.9 hPa -
Precipitation: 0 mm    
Historical Graphs
 
 
Tabular Data for May 5, 2017
Time Temperature Dew Point Pressure Wind Wind Speed Wind Gust Humidity Rainfall Rate (Hourly) solar Conditions
00:01 6.4 °C 4.6 °C 1028.7 hPa NE 6.4 km/h 14.5 km/h 88 % 0 mm 0 W/m2
00:06 6.3 °C 4.4 °C 1028.7 hPa NE 6.4 km/h 17.7 km/h 88 % 0 mm 0 W/m2
00:11 6.3 °C 4.6 °C 1028.7 hPa NE 6.4 km/h 17.7 km/h 89 % 0 mm 0 W/m2
00:16 6.3 °C 4.6 °C 1028.7 hPa NE 6.4 km/h 12.9 km/h 89 % 0 mm 0 W/m2
00:21 6.3 °C 4.6 °C 1028.7 hPa NE 3.2 km/h 12.9 km/h 89 % 0 mm 0 W/m2
00:26 6.3 °C 4.6 °C 1028.7 hPa ENE 1.6 km/h 12.9 km/h 89 % 0 mm 0 W/m2
00:31 6.3 °C 4.8 °C 1028.7 hPa NE 4.8 km/h 16.1 km/h 90 % 0 mm 0 W/m2
00:35 6.3 °C 4.8 °C 1028.7 hPa NE 4.8 km/h 16.1 km/h 90 % 0 mm 0 W/m2
00:40 6.3 °C 4.8 °C 1028.7 hPa NE 6.4 km/h 19.3 km/h 90 % 0 mm 0 W/m2
00:45 6.3 °C 4.8 °C 1028.7 hPa NE 8 km/h 19.3 km/h 90 % 0 mm 0 W/m2
00:50 6.2 °C 4.7 °C 1028.7 hPa NE 6.4 km/h 17.7 km/h 90 % 0 mm 0 W/m2
00:55 6.2 °C 4.7 °C 1028.3 hPa NE 6.4 km/h 16.1 km/h 90 % 0 mm 0 W/m2
01:00 6.2 °C 4.7 °C 1028.3 hPa NE 6.4 km/h 16.1 km/h 90 % 0 mm 0 W/m2
01:05 6.2 °C 4.8 °C 1028.3 hPa NE 8 km/h 17.7 km/h 91 % 0 mm 0 W/m2
01:10 6.2 °C 4.8 °C 1028.3 hPa NNE 6.4 km/h 17.7 km/h 91 % 0 mm 0 W/m2
01:15 6.1 °C 4.7 °C 1028.3 hPa NNE 6.4 km/h 17.7 km/h 91 % 0 mm 0 W/m2
01:20 6.1 °C 4.7 °C 1028.7 hPa NNE 8 km/h 17.7 km/h 91 % 0 mm 0 W/m2
01:25 6.1 °C 4.7 °C 1028.3 hPa NNE 8 km/h 16.1 km/h 91 % 0 mm 0 W/m2
01:30 6 °C 4.7 °C 1028.3 hPa NE 6.4 km/h 16.1 km/h 91 % 0 mm 0 W/m2
01:35 6 °C 4.8 °C 1028.3 hPa NNE 6.4 km/h 17.7 km/h 92 % 0 mm 0 W/m2
01:40 5.9 °C 4.7 °C 1028.3 hPa NNE 6.4 km/h 17.7 km/h 92 % 0 mm 0 W/m2
01:45 5.9 °C 4.7 °C 1028.3 hPa NE 6.4 km/h 16.1 km/h 92 % 0 mm 0 W/m2
01:50 5.9 °C 4.7 °C 1028.3 hPa NNE 9.7 km/h 17.7 km/h 92 % 0 mm 0 W/m2
01:55 5.9 °C 4.7 °C 1028.3 hPa NE 8 km/h 17.7 km/h 92 % 0 mm 0 W/m2
02:00 5.9 °C 4.7 °C 1028.3 hPa NE 6.4 km/h 19.3 km/h 92 % 0 mm 0 W/m2
02:05 5.9 °C 4.7 °C 1028.3 hPa NE 8 km/h 19.3 km/h 92 % 0 mm 0 W/m2
02:10 5.9 °C 4.7 °C 1028.3 hPa NE 9.7 km/h 20.9 km/h 92 % 0 mm 0 W/m2
02:15 5.8 °C 4.6 °C 1028.3 hPa NE 9.7 km/h 20.9 km/h 92 % 0 mm 0 W/m2
02:21 5.8 °C 4.6 °C 1028.3 hPa NE 8 km/h 17.7 km/h 92 % 0 mm 0 W/m2
02:26 5.8 °C 4.8 °C 1028.3 hPa NE 8 km/h 19.3 km/h 93 % 0 mm 0 W/m2
02:31 5.8 °C 4.8 °C 1028.3 hPa ENE 6.4 km/h 19.3 km/h 93 % 0 mm 0 W/m2
02:36 5.8 °C 4.8 °C 1028 hPa ENE 6.4 km/h 16.1 km/h 93 % 0 mm 0 W/m2
02:41 5.7 °C 4.7 °C 1028 hPa ENE 6.4 km/h 14.5 km/h 93 % 0 mm 0 W/m2
02:46 5.7 °C 4.7 °C 1028 hPa ENE 6.4 km/h 16.1 km/h 93 % 0 mm 0 W/m2
02:51 5.7 °C 4.7 °C 1028 hPa ENE 6.4 km/h 17.7 km/h 93 % 0 mm 0 W/m2
02:56 5.7 °C 4.7 °C 1028.3 hPa ENE 6.4 km/h 17.7 km/h 93 % 0 mm 0 W/m2
03:01 5.7 °C 4.7 °C 1028 hPa ENE 4.8 km/h 14.5 km/h 93 % 0 mm 0 W/m2
03:06 5.7 °C 4.7 °C 1028 hPa ENE 3.2 km/h 16.1 km/h 93 % 0 mm 0 W/m2
03:11 5.7 °C 4.7 °C 1028 hPa East 3.2 km/h 16.1 km/h 93 % 0 mm 0 W/m2
03:16 5.7 °C 4.7 °C 1028 hPa East 3.2 km/h 11.3 km/h 93 % 0 mm 0 W/m2
03:21 5.6 °C 4.7 °C 1028 hPa East 3.2 km/h 9.7 km/h 94 % 0 mm 0 W/m2
03:26 5.6 °C 4.6 °C 1028 hPa SE 1.6 km/h 11.3 km/h 93 % 0 mm 0 W/m2
03:31 5.6 °C 4.6 °C 1028 hPa East 1.6 km/h 11.3 km/h 93 % 0 mm 0 W/m2
03:36 5.6 °C 4.6 °C 1028 hPa ENE 1.6 km/h 12.9 km/h 93 % 0 mm 0 W/m2
03:41 5.5 °C 4.4 °C 1028 hPa NE 1.6 km/h 12.9 km/h 93 % 0 mm 0 W/m2
03:46 5.5 °C 4.6 °C 1028 hPa NE 1.6 km/h 9.7 km/h 94 % 0 mm 0 W/m2
03:51 5.5 °C 4.6 °C 1028 hPa NE 1.6 km/h 9.7 km/h 94 % 0 mm 0 W/m2
03:56 5.5 °C 4.6 °C 1028 hPa NE 1.6 km/h 14.5 km/h 94 % 0 mm 0 W/m2
04:01 5.6 °C 4.7 °C 1028 hPa ENE 3.2 km/h 14.5 km/h 94 % 0 mm 0 W/m2
04:06 5.6 °C 4.7 °C 1028 hPa ENE 1.6 km/h 11.3 km/h 94 % 0 mm 0 W/m2
04:08 5.6 °C 4.7 °C 1028 hPa Calm   8 km/h 94 % 0 mm 0 W/m2
04:13 5.6 °C 4.7 °C 1028 hPa Calm   6.4 km/h 94 % 0 mm 0 W/m2
04:19 5.7 °C 4.8 °C 1028 hPa ENE 1.6 km/h 9.7 km/h 94 % 0 mm 0 W/m2
04:24 5.7 °C 4.8 °C 1028 hPa ENE 1.6 km/h 9.7 km/h 94 % 0 mm 0 W/m2
04:29 5.7 °C 4.8 °C 1028 hPa Calm   6.4 km/h 94 % 0 mm 0 W/m2
04:34 5.7 °C 4.8 °C 1028 hPa NNE 1.6 km/h 9.7 km/h 94 % 0 mm 0 W/m2
04:39 5.7 °C 4.8 °C 1027.7 hPa NNE 1.6 km/h 11.3 km/h 94 % 0 mm 0 W/m2
04:44 5.7 °C 4.8 °C 1027.7 hPa NNE 3.2 km/h 12.9 km/h 94 % 0 mm 0 W/m2
04:49 5.8 °C 4.9 °C 1027.7 hPa NNE 3.2 km/h 12.9 km/h 94 % 0 mm 0 W/m2
04:54 5.8 °C 4.9 °C 1027.7 hPa NNE 1.6 km/h 8 km/h 94 % 0 mm 0 W/m2
04:59 5.8 °C 4.9 °C 1027.7 hPa NNE 1.6 km/h 11.3 km/h 94 % 0 mm 0 W/m2
05:04 5.8 °C 4.9 °C 1027.7 hPa ENE 3.2 km/h 11.3 km/h 94 % 0 mm 0 W/m2
05:09 5.8 °C 4.9 °C 1027.7 hPa SE 3.2 km/h 9.7 km/h 94 % 0 mm 0 W/m2
05:14 5.8 °C 4.9 °C 1027.7 hPa Calm   9.7 km/h 94 % 0 mm 0 W/m2
05:19 5.9 °C 5 °C 1027.7 hPa NNE 1.6 km/h 12.9 km/h 94 % 0 mm 0 W/m2
05:24 5.9 °C 5 °C 1027.7 hPa NNE 1.6 km/h 12.9 km/h 94 % 0 mm 0 W/m2
05:29 5.8 °C 4.9 °C 1027.7 hPa Calm   8 km/h 94 % 0 mm 5 W/m2
05:34 5.8 °C 4.9 °C 1027.7 hPa NE 1.6 km/h 8 km/h 94 % 0 mm 7 W/m2
05:39 5.8 °C 4.9 °C 1027.7 hPa Calm   6.4 km/h 94 % 0 mm 9 W/m2
05:44 5.8 °C 4.9 °C 1027.7 hPa NNE 3.2 km/h 11.3 km/h 94 % 0 mm 11 W/m2
05:49 5.8 °C 4.9 °C 1027.7 hPa NNE 3.2 km/h 11.3 km/h 94 % 0 mm 14 W/m2
05:54 5.9 °C 5 °C 1027.7 hPa NNE 1.6 km/h 9.7 km/h 94 % 0 mm 14 W/m2
05:59 5.9 °C 5.2 °C 1027.7 hPa NE 3.2 km/h 12.9 km/h 95 % 0 mm 16 W/m2
06:04 5.9 °C 5.2 °C 1027.3 hPa NNE 4.8 km/h 12.9 km/h 95 % 0 mm 21 W/m2
06:09 5.9 °C 5.2 °C 1027.7 hPa NE 4.8 km/h 12.9 km/h 95 % 0 mm 21 W/m2
06:14 5.9 °C 5.2 °C 1027.7 hPa NNE 4.8 km/h 17.7 km/h 95 % 0 mm 25 W/m2
06:19 5.9 °C 5.2 °C 1027.7 hPa NNE 6.4 km/h 22.5 km/h 95 % 0 mm 42 W/m2
06:24 6 °C 5.3 °C 1027.7 hPa NNE 6.4 km/h 22.5 km/h 95 % 0 mm 44 W/m2
06:29 6.1 °C 5.3 °C 1027.7 hPa NE 6.4 km/h 17.7 km/h 95 % 0 mm 44 W/m2
06:34 6.1 °C 5.3 °C 1027.3 hPa NE 8 km/h 16.1 km/h 95 % 0 mm 40 W/m2
06:39 6.2 °C 5.4 °C 1027.7 hPa NE 8 km/h 17.7 km/h 95 % 0 mm 60 W/m2
06:45 6.2 °C 5.4 °C 1027.3 hPa NE 6.4 km/h 17.7 km/h 95 % 0 mm 63 W/m2
06:50 6.3 °C 5.6 °C 1027.3 hPa NE 4.8 km/h 19.3 km/h 95 % 0 mm 77 W/m2
06:55 6.3 °C 5.6 °C 1027.3 hPa NE 6.4 km/h 19.3 km/h 95 % 0 mm 86 W/m2
07:00 6.4 °C 5.7 °C 1027.3 hPa NE 8 km/h 22.5 km/h 95 % 0 mm 81 W/m2
07:05 6.6 °C 5.8 °C 1027.3 hPa NE 8 km/h 22.5 km/h 95 % 0 mm 130 W/m2
07:10 6.7 °C 5.9 °C 1027.3 hPa NE 8 km/h 22.5 km/h 95 % 0 mm 200 W/m2
07:15 6.8 °C 5.9 °C 1027.3 hPa NE 9.7 km/h 22.5 km/h 94 % 0 mm 156 W/m2
07:20 7.1 °C 6.2 °C 1027.3 hPa NE 8 km/h 17.7 km/h 94 % 0 mm 236 W/m2
07:25 7.3 °C 6.4 °C 1027.3 hPa NE 8 km/h 24.1 km/h 94 % 0 mm 246 W/m2
07:30 7.4 °C 6.2 °C 1027 hPa NE 12.9 km/h 24.1 km/h 92 % 0 mm 278 W/m2
07:35 7.6 °C 6.4 °C 1027.3 hPa NE 12.9 km/h 22.5 km/h 92 % 0 mm 285 W/m2
07:40 7.8 °C 6.4 °C 1027 hPa NE 11.3 km/h 22.5 km/h 91 % 0 mm 278 W/m2
07:45 8 °C 6.4 °C 1027 hPa NE 12.9 km/h 25.7 km/h 90 % 0 mm 297 W/m2
07:50 8.2 °C 6.5 °C 1027 hPa NE 14.5 km/h 25.7 km/h 89 % 0 mm 315 W/m2
07:55 8.4 °C 6.5 °C 1027 hPa NE 14.5 km/h 25.7 km/h 88 % 0 mm 325 W/m2
08:00 8.5 °C 6.4 °C 1027 hPa NE 14.5 km/h 30.6 km/h 87 % 0 mm 276 W/m2
08:05 8.7 °C 6.5 °C 1027 hPa NE 12.9 km/h 30.6 km/h 86 % 0 mm 359 W/m2
08:10 8.9 °C 6.5 °C 1027 hPa NE 11.3 km/h 25.7 km/h 85 % 0 mm 371 W/m2
08:15 9.1 °C 6.7 °C 1027 hPa NE 11.3 km/h 25.7 km/h 85 % 0 mm 381 W/m2
08:20 9.4 °C 6.8 °C 1027 hPa NE 11.3 km/h 20.9 km/h 84 % 0 mm 397 W/m2
08:25 9.5 °C 6.8 °C 1027 hPa NE 9.7 km/h 29 km/h 83 % 0 mm 406 W/m2
08:30 9.8 °C 6.9 °C 1027 hPa NE 9.7 km/h 29 km/h 82 % 0 mm 422 W/m2
08:35 9.9 °C 6.8 °C 1027 hPa NE 11.3 km/h 24.1 km/h 81 % 0 mm 443 W/m2
08:40 10.1 °C 7 °C 1027 hPa NE 9.7 km/h 24.1 km/h 81 % 0 mm 461 W/m2
08:45 10.3 °C 7 °C 1027 hPa NE 9.7 km/h 20.9 km/h 80 % 0 mm 483 W/m2
08:50 10.3 °C 6.4 °C 1027 hPa ENE 11.3 km/h 25.7 km/h 77 % 0 mm 483 W/m2
08:55 10.5 °C 6.8 °C 1027 hPa ENE 11.3 km/h 25.7 km/h 78 % 0 mm 501 W/m2
09:00 10.8 °C 6.9 °C 1027 hPa ENE 9.7 km/h 19.3 km/h 77 % 0 mm 517 W/m2
09:05 11 °C 6.9 °C 1027 hPa ENE 9.7 km/h 19.3 km/h 76 % 0 mm 536 W/m2
09:10 11.1 °C 6.8 °C 1027 hPa ENE 11.3 km/h 25.7 km/h 75 % 0 mm 547 W/m2
09:15 11.1 °C 6.8 °C 1027 hPa ENE 12.9 km/h 25.7 km/h 75 % 0 mm 564 W/m2
09:20 11.2 °C 6.7 °C 1027 hPa ENE 11.3 km/h 24.1 km/h 74 % 0 mm 591 W/m2
09:25 11.3 °C 6.8 °C 1026.6 hPa NE 11.3 km/h 25.7 km/h 74 % 0 mm 608 W/m2
09:30 11.8 °C 6.9 °C 1027 hPa ENE 11.3 km/h 25.7 km/h 72 % 0 mm 610 W/m2
09:35 11.8 °C 6.5 °C 1026.6 hPa ENE 12.9 km/h 25.7 km/h 70 % 0 mm 629 W/m2
09:41 11.8 °C 6.7 °C 1026.6 hPa ENE 14.5 km/h 29 km/h 71 % 0 mm 580 W/m2
09:46 11.9 °C 7 °C 1026.6 hPa ENE 11.3 km/h 29 km/h 72 % 0 mm 724 W/m2
09:51 12.2 °C 6.7 °C 1026.6 hPa ENE 9.7 km/h 17.7 km/h 69 % 0 mm 694 W/m2
09:56 12.4 °C 6.9 °C 1026.6 hPa ENE 9.7 km/h 20.9 km/h 69 % 0 mm 663 W/m2
10:01 12.4 °C 6.9 °C 1026.6 hPa ENE 11.3 km/h 20.9 km/h 69 % 0 mm 766 W/m2
10:06 12.6 °C 6.6 °C 1026.6 hPa ENE 11.3 km/h 29 km/h 67 % 0 mm 775 W/m2
10:11 12.4 °C 6.2 °C 1026.6 hPa ENE 12.9 km/h 29 km/h 66 % 0 mm 775 W/m2
10:16 12.1 °C 6.2 °C 1026.3 hPa ENE 14.5 km/h 29 km/h 67 % 0 mm 759 W/m2
10:21 12.1 °C 6.4 °C 1026.3 hPa ENE 12.9 km/h 22.5 km/h 68 % 0 mm 842 W/m2
10:26 12.4 °C 6.4 °C 1026.3 hPa ENE 12.9 km/h 24.1 km/h 67 % 0 mm 218 W/m2
10:31 12.6 °C 6.4 °C 1026.3 hPa ENE 12.9 km/h 24.1 km/h 66 % 0 mm 751 W/m2
10:36 12.7 °C 6.5 °C 1026.3 hPa ENE 12.9 km/h 24.1 km/h 66 % 0 mm 759 W/m2
10:41 13 °C 6.3 °C 1026 hPa ENE 12.9 km/h 29 km/h 64 % 0 mm 770 W/m2
10:46 13 °C 5.7 °C 1026 hPa ENE 12.9 km/h 29 km/h 61 % 0 mm 770 W/m2
10:51 12.9 °C 6 °C 1026 hPa ENE 14.5 km/h 29 km/h 63 % 0 mm 786 W/m2
10:56 13.2 °C 5.8 °C 1026 hPa ENE 12.9 km/h 32.2 km/h 61 % 0 mm 272 W/m2
11:01 13.2 °C 6.3 °C 1026 hPa ENE 11.3 km/h 32.2 km/h 63 % 0 mm 833 W/m2
11:06 13.5 °C 6.1 °C 1025.6 hPa ENE 11.3 km/h 30.6 km/h 61 % 0 mm 930 W/m2
11:11 13.5 °C 6.1 °C 1025.6 hPa ENE 12.9 km/h 35.4 km/h 61 % 0 mm 875 W/m2
11:16 13.6 °C 6 °C 1025.6 hPa ENE 14.5 km/h 35.4 km/h 60 % 0 mm 200 W/m2
11:21 13.5 °C 5.9 °C 1025.6 hPa ENE 12.9 km/h 29 km/h 60 % 0 mm 875 W/m2
11:26 13.7 °C 6.6 °C 1025.3 hPa ENE 11.3 km/h 25.7 km/h 62 % 0 mm 279 W/m2
11:31 13.7 °C 5.6 °C 1025.3 hPa ENE 12.9 km/h 32.2 km/h 58 % 0 mm 914 W/m2
11:32 13.8 °C 5.7 °C 1025.3 hPa ENE 12.9 km/h 32.2 km/h 58 % 0 mm 914 W/m2
11:37 13.7 °C 5.1 °C 1025.3 hPa ENE 16.1 km/h 32.2 km/h 56 % 0 mm 914 W/m2
11:42 13.9 °C 5.3 °C 1025.3 hPa ENE 16.1 km/h 30.6 km/h 56 % 0 mm 262 W/m2
11:47 14 °C 5.6 °C 1025.3 hPa ENE 12.9 km/h 30.6 km/h 57 % 0 mm 976 W/m2
11:52 13.8 °C 5.4 °C 1025.3 hPa ENE 14.5 km/h 33.8 km/h 57 % 0 mm 1028 W/m2
11:57 13.8 °C 5.4 °C 1024.9 hPa ENE 17.7 km/h 33.8 km/h 57 % 0 mm 916 W/m2
12:02 14.1 °C 4.9 °C 1024.9 hPa ENE 14.5 km/h 32.2 km/h 54 % 0 mm 925 W/m2
12:03 14.2 °C 5.3 °C 1024.9 hPa ENE 14.5 km/h 32.2 km/h 55 % 0 mm 925 W/m2
12:08 14.6 °C 5.4 °C 1024.9 hPa East 14.5 km/h 32.2 km/h 54 % 0 mm 886 W/m2
12:13 14.8 °C 5.6 °C 1024.9 hPa East 14.5 km/h 29 km/h 54 % 0 mm 932 W/m2
12:18 14.6 °C 4.8 °C 1024.9 hPa ENE 16.1 km/h 30.6 km/h 52 % 0 mm 213 W/m2
12:23 14.1 °C 5.2 °C 1024.9 hPa ENE 16.1 km/h 32.2 km/h 55 % 0 mm 919 W/m2
12:28 14.1 °C 5.2 °C 1024.6 hPa ENE 12.9 km/h 32.2 km/h 55 % 0 mm 942 W/m2
12:33 14.3 °C 5.1 °C 1024.6 hPa ENE 12.9 km/h 29 km/h 54 % 0 mm 255 W/m2
12:38 14.3 °C 5.6 °C 1024.6 hPa ENE 12.9 km/h 29 km/h 56 % 0 mm 313 W/m2
12:43 14.2 °C 5.3 °C 1024.6 hPa ENE 14.5 km/h 29 km/h 55 % 0 mm 128 W/m2
12:48 14.1 °C 5.4 °C 1024.6 hPa ENE 14.5 km/h 29 km/h 56 % 0 mm 954 W/m2
12:53 14.4 °C 5.7 °C 1024.6 hPa ENE 14.5 km/h 25.7 km/h 56 % 0 mm 951 W/m2
12:58 14.6 °C 5.4 °C 1024.3 hPa ENE 14.5 km/h 30.6 km/h 54 % 0 mm 1000 W/m2
13:03 14.8 °C 4.8 °C 1024.3 hPa ENE 14.5 km/h 30.6 km/h 51 % 0 mm 882 W/m2
13:08 15 °C 4.4 °C 1024.3 hPa East 14.5 km/h 29 km/h 49 % 0 mm 942 W/m2
13:13 15.2 °C 4.6 °C 1024.3 hPa East 14.5 km/h 29 km/h 49 % 0 mm 909 W/m2
13:18 15.2 °C 4.8 °C 1024.3 hPa East 12.9 km/h 24.1 km/h 50 % 0 mm 891 W/m2
13:23 15.4 °C 4.4 °C 1024.3 hPa East 12.9 km/h 25.7 km/h 48 % 0 mm 923 W/m2
13:28 15.4 °C 4.4 °C 1023.9 hPa ENE 16.1 km/h 32.2 km/h 48 % 0 mm 895 W/m2
13:33 15.3 °C 4.1 °C 1023.9 hPa ENE 16.1 km/h 32.2 km/h 47 % 0 mm 939 W/m2
13:38 15.3 °C 4.1 °C 1023.9 hPa East 14.5 km/h 29 km/h 47 % 0 mm 902 W/m2
13:43 15.3 °C 4.3 °C 1023.9 hPa East 16.1 km/h 29 km/h 48 % 0 mm 895 W/m2
13:48 15.4 °C 4.7 °C 1023.6 hPa ENE 16.1 km/h 29 km/h 49 % 0 mm 939 W/m2
13:53 15.7 °C 4.7 °C 1023.6 hPa East 12.9 km/h 30.6 km/h 48 % 0 mm 875 W/m2
13:58 15.9 °C 4.9 °C 1023.6 hPa East 12.9 km/h 30.6 km/h 48 % 0 mm 891 W/m2
14:03 16.1 °C 3.8 °C 1023.6 hPa East 16.1 km/h 32.2 km/h 44 % 0 mm 930 W/m2
14:08 16.1 °C 3.2 °C 1023.6 hPa East 16.1 km/h 32.2 km/h 42 % 0 mm 893 W/m2
14:13 16.3 °C 3.3 °C 1023.2 hPa East 14.5 km/h 33.8 km/h 42 % 0 mm 933 W/m2
14:18 16.4 °C 3.4 °C 1023.2 hPa East 16.1 km/h 37 km/h 42 % 0 mm 860 W/m2
14:23 16.2 °C 3.6 °C 1023.2 hPa East 16.1 km/h 37 km/h 43 % 0 mm 888 W/m2
14:28 16.1 °C 3.5 °C 1023.2 hPa ENE 16.1 km/h 37 km/h 43 % 0 mm 877 W/m2
14:33 16 °C 3.4 °C 1023.2 hPa ENE 14.5 km/h 33.8 km/h 43 % 0 mm 926 W/m2
14:38 16.1 °C 3.8 °C 1023.2 hPa ENE 16.1 km/h 33.8 km/h 44 % 0 mm 216 W/m2
14:43 15.5 °C 2.9 °C 1022.9 hPa ENE 16.1 km/h 33.8 km/h 43 % 0 mm 244 W/m2
14:48 15.5 °C 2.9 °C 1022.9 hPa ENE 17.7 km/h 38.6 km/h 43 % 0 mm 837 W/m2
14:53 15.6 °C 3.7 °C 1022.9 hPa East 16.1 km/h 38.6 km/h 45 % 0 mm 846 W/m2
14:58 15.7 °C 3.2 °C 1022.6 hPa East 16.1 km/h 32.2 km/h 43 % 0 mm 809 W/m2
15:03 15.9 °C 3.3 °C 1022.9 hPa East 17.7 km/h 32.2 km/h 43 % 0 mm 821 W/m2
15:08 15.9 °C 3.3 °C 1022.6 hPa East 16.1 km/h 32.2 km/h 43 % 0 mm 837 W/m2
15:13 15.9 °C 3.7 °C 1022.9 hPa East 14.5 km/h 32.2 km/h 44 % 0 mm 160 W/m2
15:18 15.8 °C 3.2 °C 1022.6 hPa ENE 14.5 km/h 29 km/h 43 % 0 mm 844 W/m2
15:23 15.7 °C 3.4 °C 1022.6 hPa ENE 14.5 km/h 32.2 km/h 44 % 0 mm 174 W/m2
15:28 15.4 °C 2.2 °C 1022.6 hPa East 17.7 km/h 38.6 km/h 41 % 0 mm 775 W/m2
15:33 15.4 °C 2.9 °C 1022.6 hPa East 16.1 km/h 38.6 km/h 43 % 0 mm 751 W/m2
15:38 15.6 °C 3.1 °C 1022.6 hPa East 17.7 km/h 38.6 km/h 43 % 0 mm 816 W/m2
15:44 15.3 °C 2.8 °C 1022.6 hPa ENE 19.3 km/h 38.6 km/h 43 % 0 mm 735 W/m2
15:49 15.3 °C 2.4 °C 1022.2 hPa ENE 17.7 km/h 33.8 km/h 42 % 0 mm 731 W/m2
15:54 15.2 °C 2 °C 1022.2 hPa ENE 16.1 km/h 37 km/h 41 % 0 mm 705 W/m2
15:59 15.2 °C 2 °C 1022.2 hPa ENE 16.1 km/h 37 km/h 41 % 0 mm 691 W/m2
16:04 15.3 °C 2.8 °C 1022.2 hPa East 16.1 km/h 30.6 km/h 43 % 0 mm 680 W/m2
16:09 15.4 °C 2.6 °C 1022.2 hPa East 16.1 km/h 33.8 km/h 42 % 0 mm 670 W/m2
16:14 15.4 °C 2.9 °C 1022.2 hPa East 16.1 km/h 33.8 km/h 43 % 0 mm 649 W/m2
16:19 15.5 °C 2.6 °C 1021.9 hPa East 16.1 km/h 35.4 km/h 42 % 0 mm 629 W/m2
16:24 15.4 °C 2.9 °C 1021.9 hPa East 17.7 km/h 35.4 km/h 43 % 0 mm 622 W/m2
16:29 15.2 °C 2.7 °C 1021.9 hPa ENE 19.3 km/h 37 km/h 43 % 0 mm 599 W/m2
16:34 15.1 °C 2.9 °C 1021.9 hPa ENE 17.7 km/h 37 km/h 44 % 0 mm 582 W/m2
16:39 15 °C 2.8 °C 1021.9 hPa ENE 17.7 km/h 35.4 km/h 44 % 0 mm 571 W/m2
16:44 15 °C 3.2 °C 1021.9 hPa East 17.7 km/h 35.4 km/h 45 % 0 mm 559 W/m2
16:49 14.9 °C 3.1 °C 1021.9 hPa East 16.1 km/h 35.4 km/h 45 % 0 mm 552 W/m2
16:54 14.8 °C 2.9 °C 1021.9 hPa East 17.7 km/h 37 km/h 45 % 0 mm 531 W/m2
16:59 14.7 °C 3.2 °C 1021.6 hPa ENE 17.7 km/h 46.7 km/h 46 % 0 mm 517 W/m2
17:04 14.7 °C 3.2 °C 1021.9 hPa ENE 17.7 km/h 46.7 km/h 46 % 0 mm 504 W/m2
17:09 14.6 °C 2.8 °C 1021.6 hPa East 16.1 km/h 35.4 km/h 45 % 0 mm 490 W/m2
17:14 14.6 °C 3.1 °C 1021.6 hPa East 14.5 km/h 32.2 km/h 46 % 0 mm 473 W/m2
17:19 14.6 °C 2.8 °C 1021.6 hPa East 16.1 km/h 32.2 km/h 45 % 0 mm 457 W/m2
17:24 14.5 °C 3 °C 1021.6 hPa East 14.5 km/h 30.6 km/h 46 % 0 mm 448 W/m2
17:26 14.6 °C 3.1 °C 1021.6 hPa East 14.5 km/h 30.6 km/h 46 % 0 mm 441 W/m2
17:31 14.6 °C 2.8 °C 1021.6 hPa ENE 14.5 km/h 29 km/h 45 % 0 mm 427 W/m2
17:36 14.4 °C 2.9 °C 1021.6 hPa East 12.9 km/h 29 km/h 46 % 0 mm 411 W/m2
17:41 14.3 °C 2.8 °C 1021.6 hPa East 12.9 km/h 25.7 km/h 46 % 0 mm 399 W/m2
17:46 14.4 °C 2.9 °C 1021.6 hPa East 12.9 km/h 25.7 km/h 46 % 0 mm 385 W/m2
17:51 14.3 °C 2.5 °C 1021.6 hPa East 12.9 km/h 30.6 km/h 45 % 0 mm 371 W/m2
17:56 14.2 °C 2.4 °C 1021.6 hPa ENE 14.5 km/h 30.6 km/h 45 % 0 mm 355 W/m2
18:01 14.1 °C 2.3 °C 1021.2 hPa ENE 12.9 km/h 24.1 km/h 45 % 0 mm 341 W/m2
18:06 14.1 °C 2 °C 1021.2 hPa East 11.3 km/h 30.6 km/h 44 % 0 mm 329 W/m2
18:11 13.9 °C 1.2 °C 1021.2 hPa ENE 12.9 km/h 32.2 km/h 42 % 0 mm 311 W/m2
18:16 13.8 °C 1.1 °C 1021.2 hPa ENE 14.5 km/h 33.8 km/h 42 % 0 mm 301 W/m2
18:21 13.6 °C 1.6 °C 1021.2 hPa ENE 14.5 km/h 35.4 km/h 44 % 0 mm 285 W/m2
18:26 13.3 °C 1.6 °C 1021.2 hPa ENE 16.1 km/h 35.4 km/h 45 % 0 mm 269 W/m2
18:31 13.2 °C 2.4 °C 1021.2 hPa East 14.5 km/h 32.2 km/h 48 % 0 mm 253 W/m2
18:36 13.1 °C 2.6 °C 1021.2 hPa East 12.9 km/h 25.7 km/h 49 % 0 mm 236 W/m2
18:41 12.9 °C 3 °C 1021.2 hPa ENE 14.5 km/h 25.7 km/h 51 % 0 mm 221 W/m2
18:46 12.8 °C 3.2 °C 1021.2 hPa ENE 12.9 km/h 25.7 km/h 52 % 0 mm 207 W/m2
18:51 12.7 °C 3.6 °C 1020.9 hPa East 11.3 km/h 24.1 km/h 54 % 0 mm 192 W/m2
18:56 12.7 °C 3.6 °C 1020.9 hPa ENE 12.9 km/h 24.1 km/h 54 % 0 mm 179 W/m2
19:01 12.5 °C 3.7 °C 1021.2 hPa ENE 12.9 km/h 24.1 km/h 55 % 0 mm 165 W/m2
19:06 12.3 °C 3.8 °C 1020.9 hPa ENE 12.9 km/h 25.7 km/h 56 % 0 mm 153 W/m2
19:11 12.1 °C 3.8 °C 1021.2 hPa ENE 14.5 km/h 25.7 km/h 57 % 0 mm 139 W/m2
19:16 12 °C 4 °C 1020.9 hPa ENE 14.5 km/h 30.6 km/h 58 % 0 mm 130 W/m2
19:22 11.8 °C 4.1 °C 1021.2 hPa ENE 14.5 km/h 30.6 km/h 59 % 0 mm 118 W/m2
19:27 11.8 °C 4.1 °C 1020.9 hPa ENE 12.9 km/h 29 km/h 59 % 0 mm 105 W/m2
19:32 11.6 °C 3.8 °C 1020.9 hPa ENE 12.9 km/h 24.1 km/h 59 % 0 mm 91 W/m2
19:37 11.5 °C 4 °C 1021.2 hPa ENE 11.3 km/h 24.1 km/h 60 % 0 mm 83 W/m2
19:42 11.3 °C 4.1 °C 1021.2 hPa ENE 11.3 km/h 25.7 km/h 61 % 0 mm 70 W/m2
19:47 11 °C 3.8 °C 1020.9 hPa ENE 12.9 km/h 30.6 km/h 61 % 0 mm 60 W/m2
19:52 10.8 °C 4.1 °C 1020.9 hPa ENE 12.9 km/h 30.6 km/h 63 % 0 mm 47 W/m2
19:57 10.6 °C 4.1 °C 1020.9 hPa ENE 11.3 km/h 24.1 km/h 64 % 0 mm 25 W/m2
20:02 10.4 °C 4.1 °C 1020.9 hPa East 9.7 km/h 19.3 km/h 65 % 0 mm 23 W/m2
20:07 10.3 °C 4.2 °C 1020.9 hPa East 8 km/h 17.7 km/h 66 % 0 mm 19 W/m2
20:12 10.3 °C 4.4 °C 1020.9 hPa East 8 km/h 20.9 km/h 67 % 0 mm 18 W/m2
20:17 10.1 °C 4.2 °C 1020.9 hPa ENE 11.3 km/h 24.1 km/h 67 % 0 mm 16 W/m2
20:22 9.9 °C 4.3 °C 1020.9 hPa ENE 12.9 km/h 24.1 km/h 68 % 0 mm 14 W/m2
20:27 9.7 °C 4.3 °C 1020.9 hPa ENE 12.9 km/h 22.5 km/h 69 % 0 mm 11 W/m2
20:32 9.6 °C 4.4 °C 1020.9 hPa ENE 9.7 km/h 17.7 km/h 70 % 0 mm 9 W/m2
20:37 9.4 °C 4.2 °C 1020.9 hPa ENE 9.7 km/h 22.5 km/h 70 % 0 mm 7 W/m2
20:42 9.3 °C 4.1 °C 1020.9 hPa ENE 9.7 km/h 22.5 km/h 70 % 0 mm 5 W/m2
20:47 9.2 °C 4.2 °C 1020.9 hPa ENE 8 km/h 17.7 km/h 71 % 0 mm 0 W/m2
20:52 9.1 °C 4.3 °C 1020.9 hPa ENE 8 km/h 19.3 km/h 72 % 0 mm 0 W/m2
20:57 9 °C 4.4 °C 1020.9 hPa ENE 8 km/h 19.3 km/h 73 % 0 mm 0 W/m2
21:02 8.9 °C 4.5 °C 1020.9 hPa ENE 8 km/h 16.1 km/h 74 % 0 mm 0 W/m2
21:07 8.8 °C 4.4 °C 1020.9 hPa ENE 8 km/h 16.1 km/h 74 % 0 mm 0 W/m2
21:12 8.7 °C 4.5 °C 1020.9 hPa ENE 8 km/h 16.1 km/h 75 % 0 mm 0 W/m2
21:17 8.6 °C 4.6 °C 1020.9 hPa ENE 6.4 km/h 14.5 km/h 76 % 0 mm 0 W/m2
21:22 8.5 °C 4.7 °C 1020.9 hPa ENE 6.4 km/h 17.7 km/h 77 % 0 mm 0 W/m2
21:27 8.4 °C 4.6 °C 1020.9 hPa ENE 6.4 km/h 17.7 km/h 77 % 0 mm 0 W/m2
21:32 8.4 °C 4.8 °C 1020.9 hPa ENE 6.4 km/h 12.9 km/h 78 % 0 mm 0 W/m2
21:37 8.3 °C 4.9 °C 1020.9 hPa ENE 8 km/h 22.5 km/h 79 % 0 mm 0 W/m2
21:42 8.2 °C 4.8 °C 1020.9 hPa ENE 9.7 km/h 22.5 km/h 79 % 0 mm 0 W/m2
21:44 8.2 °C 4.9 °C 1020.9 hPa ENE 9.7 km/h 22.5 km/h 80 % 0 mm 0 W/m2
21:49 8.1 °C 4.8 °C 1020.9 hPa ENE 8 km/h 16.1 km/h 80 % 0 mm 0 W/m2
21:54 8 °C 4.8 °C 1020.9 hPa ENE 8 km/h 16.1 km/h 80 % 0 mm 0 W/m2
21:59 7.9 °C 4.8 °C 1020.9 hPa ENE 6.4 km/h 19.3 km/h 81 % 0 mm 0 W/m2
22:04 7.9 °C 4.8 °C 1020.9 hPa ENE 8 km/h 19.3 km/h 81 % 0 mm 0 W/m2
22:09 7.8 °C 4.9 °C 1020.9 hPa ENE 9.7 km/h 17.7 km/h 82 % 0 mm 0 W/m2
22:14 7.8 °C 4.9 °C 1020.5 hPa ENE 8 km/h 17.7 km/h 82 % 0 mm 0 W/m2
22:19 7.7 °C 5 °C 1020.5 hPa ENE 8 km/h 19.3 km/h 83 % 0 mm 0 W/m2
22:24 7.6 °C 4.9 °C 1020.5 hPa ENE 8 km/h 19.3 km/h 83 % 0 mm 0 W/m2
22:30 7.6 °C 5.1 °C 1020.5 hPa ENE 8 km/h 17.7 km/h 84 % 0 mm 0 W/m2
22:35 7.5 °C 4.9 °C 1020.5 hPa ENE 8 km/h 17.7 km/h 84 % 0 mm 0 W/m2
22:40 7.5 °C 5.2 °C 1020.5 hPa ENE 8 km/h 16.1 km/h 85 % 0 mm 0 W/m2
22:45 7.4 °C 5.1 °C 1020.5 hPa ENE 8 km/h 16.1 km/h 85 % 0 mm 0 W/m2
22:50 7.3 °C 4.9 °C 1020.2 hPa ENE 8 km/h 16.1 km/h 85 % 0 mm 0 W/m2
22:55 7.3 °C 5.1 °C 1020.2 hPa ENE 6.4 km/h 14.5 km/h 86 % 0 mm 0 W/m2
23:00 7.2 °C 5 °C 1020.2 hPa ENE 6.4 km/h 12.9 km/h 86 % 0 mm 0 W/m2
23:05 7.2 °C 5 °C 1020.2 hPa ENE 8 km/h 16.1 km/h 86 % 0 mm 0 W/m2
23:10 7.1 °C 4.9 °C 1020.2 hPa ENE 6.4 km/h 16.1 km/h 86 % 0 mm 0 W/m2
23:11 7.1 °C 4.9 °C 1020.2 hPa ENE 8 km/h 16.1 km/h 86 % 0 mm 0 W/m2
23:16 7 °C 5 °C 1020.2 hPa ENE 6.4 km/h 12.9 km/h 87 % 0 mm 0 W/m2
23:21 7 °C 5 °C 1020.2 hPa ENE 6.4 km/h 16.1 km/h 87 % 0 mm 0 W/m2
23:26 6.9 °C 4.9 °C 1019.9 hPa ENE 6.4 km/h 16.1 km/h 87 % 0 mm 0 W/m2
23:31 6.9 °C 4.9 °C 1019.9 hPa ENE 4.8 km/h 12.9 km/h 87 % 0 mm 0 W/m2
23:36 6.8 °C 4.8 °C 1019.9 hPa ENE 3.2 km/h 9.7 km/h 87 % 0 mm 0 W/m2
23:41 6.8 °C 4.8 °C 1019.9 hPa ENE 3.2 km/h 9.7 km/h 87 % 0 mm 0 W/m2
23:46 6.7 °C 4.8 °C 1019.9 hPa NE 1.6 km/h 9.7 km/h 88 % 0 mm 0 W/m2
23:52 6.7 °C 4.8 °C 1019.9 hPa NE 1.6 km/h 9.7 km/h 88 % 0 mm 0 W/m2
23:57 6.6 °C 4.8 °C 1019.9 hPa NE 4.8 km/h 16.1 km/h 88 % 0 mm 0 W/m2
Delerius-Weather
Compliments of Weather Underground - 2.25 mb

Data updates at regular intervals.